CW1988 Weather Reports


Display with metric or nautical units.
time (UTC)temp
F
wind
direction
speed
MPH
gust
MPH
rain 1hr
in
rain 24hr
in
rain mn
in
humidity
%
barometer
mb
20260508204950 67 182 0.0 1.0 0.00 0.00 0.00 27 1007.2
20260508204448 67 182 2.0 2.0 0.00 0.00 0.00 26 1007.2
20260508203949 67 182 0.0 0.0 0.00 0.00 0.00 27 1007.2
20260508203445 67 182 0.0 0.0 0.00 0.00 0.00 27 1007.4
20260508202941 67 182 1.0 1.0 0.00 0.00 0.00 28 1007.2
20260508202438 67 182 0.0 0.0 0.00 0.00 0.00 26 1007.4
20260508201935 67 182 0.0 0.0 0.00 0.00 0.00 27 1007.7
20260508201432 67 182 0.0 1.0 0.00 0.00 0.00 28 1007.9
20260508200929 66 182 0.0 0.0 0.00 0.00 0.00 32 1007.6
20260508200426 66 182 0.0 1.0 0.00 0.00 0.00 24 1007.9
20260508195921 66 182 0.0 1.0 0.00 0.00 0.00 26 1007.9
20260508195418 66 182 1.0 1.0 0.00 0.00 0.00 27 1008.1
20260508194914 67 182 0.0 0.0 0.00 0.00 0.00 28 1008.2
20260508194412 67 182 0.0 0.0 0.00 0.00 0.00 25 1008.1
20260508193908 66 182 0.0 0.0 0.00 0.00 0.00 30 1008.1
20260508193406 66 182 0.0 1.0 0.00 0.00 0.00 33 1008.4
20260508192901 66 182 1.0 1.0 0.00 0.00 0.00 25 1008.3
20260508192358 66 182 0.0 0.0 0.00 0.00 0.00 30 1008.5
20260508191856 66 182 0.0 0.0 0.00 0.00 0.00 30 1008.5
20260508191353 66 182 0.0 0.0 0.00 0.00 0.00 28 1008.5
20260508190850 67 182 0.0 1.0 0.00 0.00 0.00 25 1008.5
20260508190346 66 182 0.0 0.0 0.00 0.00 0.00 30 1008.5
20260508185843 66 182 0.0 0.0 0.00 0.00 0.00 30 1008.8
20260508185340 66 182 0.0 0.0 0.00 0.00 0.00 27 1008.6
20260508184838 65 182 0.0 0.0 0.00 0.00 0.00 30 1008.9
20260508184335 65 182 0.0 1.0 0.00 0.00 0.00 28 1008.8
20260508183831 66 182 0.0 0.0 0.00 0.00 0.00 29 1008.9
20260508183328 66 182 0.0 0.0 0.00 0.00 0.00 30 1009.1
20260508182824 66 182 1.0 1.0 0.00 0.00 0.00 28 1009.1
20260508182321 66 182 0.0 0.0 0.00 0.00 0.00 28 1009.0
20260508181816 66 182 0.0 0.0 0.00 0.00 0.00 29 1009.2
20260508181314 66 182 0.0 0.0 0.00 0.00 0.00 32 1009.1
20260508180810 66 182 0.0 0.0 0.00 0.00 0.00 32 1009.2
20260508180307 66 182 0.0 0.0 0.00 0.00 0.00 35 1009.1
20260508175803 66 182 0.0 0.0 0.00 0.00 0.00 30 1009.2
20260508175300 66 182 0.0 0.0 0.00 0.00 0.00 31 1009.4
20260508174758 65 182 0.0 1.0 0.00 0.00 0.00 32 1009.5
20260508174256 65 182 1.0 1.0 0.00 0.00 0.00 27 1009.6
20260508173752 65 182 0.0 0.0 0.00 0.00 0.00 31 1009.8
20260508173248 65 182 1.0 1.0 0.00 0.00 0.00 32 1009.6
20260508172744 65 182 0.0 0.0 0.00 0.00 0.00 32 1009.9
20260508172242 65 182 0.0 0.0 0.00 0.00 0.00 33 1010.1
20260508171738 65 182 0.0 0.0 0.00 0.00 0.00 31 1010.0
20260508171234 65 182 0.0 0.0 0.00 0.00 0.00 31 1010.2
20260508170731 66 182 0.0 0.0 0.00 0.00 0.00 31 1010.2
20260508170229 66 182 0.0 1.0 0.00 0.00 0.00 29 1010.4
20260508165726 65 182 0.0 0.0 0.00 0.00 0.00 32 1010.4
20260508165223 65 182 0.0 0.0 0.00 0.00 0.00 28 1010.5
20260508164720 65 182 1.0 2.0 0.00 0.00 0.00 33 1010.7
20260508164216 65 182 0.0 0.0 0.00 0.00 0.00 28 1010.6
20260508163714 65 182 0.0 0.0 0.00 0.00 0.00 33 1010.8
20260508163211 65 182 0.0 0.0 0.00 0.00 0.00 32 1010.8
20260508162707 64 182 0.0 1.0 0.00 0.00 0.00 32 1010.8
20260508162204 64 182 0.0 0.0 0.00 0.00 0.00 35 1011.0
20260508161701 65 182 1.0 1.0 0.00 0.00 0.00 35 1011.1
20260508161158 65 182 0.0 0.0 0.00 0.00 0.00 33 1011.2
20260508160657 65 182 0.0 1.0 0.00 0.00 0.00 31 1011.2
20260508160154 65 182 0.0 0.0 0.00 0.00 0.00 35 1011.1
20260508155651 65 182 0.0 0.0 0.00 0.00 0.00 33 1011.2
20260508155148 65 182 0.0 0.0 0.00 0.00 0.00 32 1011.4
20260508154645 66 182 0.0 0.0 0.00 0.00 0.00 29 1011.2
20260508154141 67 182 0.0 0.0 0.00 0.00 0.00 29 1011.1
20260508153638 68 181 1.0 1.0 0.00 0.00 0.00 33 1011.2
20260508153135 69 181 0.0 0.0 0.00 0.00 0.00 30 1011.3
20260508152632 70 181 0.0 0.0 0.00 0.00 0.00 31 1011.1
20260508152127 70 181 0.0 0.0 0.00 0.00 0.00 30 1011.3
20260508151624 71 181 0.0 0.0 0.00 0.00 0.00 26 1011.3
20260508151121 71 181 0.0 1.0 0.00 0.00 0.00 27 1011.2
20260508150618 71 181 0.0 0.0 0.00 0.00 0.00 30 1011.4
20260508150115 70 181 0.0 1.0 0.00 0.00 0.00 28 1011.3
20260508145611 70 181 0.0 0.0 0.00 0.00 0.00 27 1011.3
20260508145107 70 181 0.0 0.0 0.00 0.00 0.00 26 1011.1
20260508144605 69 181 0.0 0.0 0.00 0.00 0.00 30 1011.3
20260508144102 69 181 0.0 0.0 0.00 0.00 0.00 28 1011.2
20260508143559 68 181 0.0 0.0 0.00 0.00 0.00 31 1011.3
20260508143056 68 181 0.0 0.0 0.00 0.00 0.00 28 1011.7
20260508142553 69 180 0.0 0.0 0.00 0.00 0.00 31 1011.5
20260508142049 68 181 0.0 0.0 0.00 0.00 0.00 30 1011.6
20260508141546 67 180 0.0 0.0 0.00 0.00 0.00 36 1011.5
20260508141044 66 181 0.0 0.0 0.00 0.00 0.00 32 1011.5
20260508140541 64 181 0.0 0.0 0.00 0.00 0.00 37 1011.4
20260508140037 62 181 0.0 0.0 0.00 0.00 0.00 35 1011.6
20260508135533 61 181 0.0 0.0 0.00 0.00 0.00 37 1011.6
20260508135029 61 181 0.0 0.0 0.00 0.00 0.00 40 1011.8
20260508134526 61 181 0.0 0.0 0.00 0.00 0.00 43 1012.0
20260508134023 60 181 0.0 0.0 0.00 0.00 0.00 44 1011.8
20260508133520 60 181 0.0 0.0 0.00 0.00 0.00 42 1012.1
20260508133017 60 181 0.0 0.0 0.00 0.00 0.00 44 1011.7
20260508132515 60 181 0.0 0.0 0.00 0.00 0.00 48 1012.0
20260508132011 58 181 0.0 0.0 0.00 0.00 0.00 52 1012.0
20260508131507 57 181 0.0 0.0 0.00 0.00 0.00 55 1011.8
20260508131003 53 181 0.0 0.0 0.00 0.00 0.00 62 1012.1
20260508130501 50 181 0.0 0.0 0.00 0.00 0.00 67 1012.1
20260508125956 49 181 0.0 0.0 0.00 0.00 0.00 69 1012.0
20260508125453 48 181 0.0 0.0 0.00 0.00 0.00 71 1012.2
20260508124950 47 181 0.0 0.0 0.00 0.00 0.00 73 1012.1
20260508124448 46 181 0.0 0.0 0.00 0.00 0.00 73 1012.1
20260508123945 46 181 0.0 0.0 0.00 0.00 0.00 73 1011.8
20260508123444 45 181 0.0 0.0 0.00 0.00 0.00 73 1012.0
20260508122940 44 181 0.0 0.0 0.00 0.00 0.00 72 1012.4
20260508122437 44 181 0.0 0.0 0.00 0.00 0.00 72 1012.2
20260508121934 44 181 0.0 0.0 0.00 0.00 0.00 72 1012.2
20260508121432 43 181 0.0 0.0 0.00 0.00 0.00 73 1012.2
20260508120930 42 181 0.0 0.0 0.00 0.00 0.00 75 1012.2
20260508120427 40 181 0.0 0.0 0.00 0.00 0.00 78 1012.1
20260508115924 39 181 0.0 0.0 0.00 0.00 0.00 80 1012.0
20260508115423 37 181 0.0 0.0 0.00 0.00 0.00 84 1012.2
20260508114919 36 181 0.0 0.0 0.00 0.00 0.00 87 1012.0
20260508114416 35 181 0.0 0.0 0.00 0.00 0.00 89 1012.2
20260508113912 34 181 0.0 0.0 0.00 0.00 0.00 89 1012.0
20260508113410 33 182 0.0 0.0 0.00 0.00 0.00 89 1012.1
20260508112907 33 182 0.0 0.0 0.00 0.00 0.00 89 1012.2
20260508112404 33 182 0.0 0.0 0.00 0.00 0.00 89 1012.1
20260508111901 32 182 0.0 0.0 0.00 0.00 0.00 89 1012.1
20260508111358 32 182 0.0 0.0 0.00 0.00 0.00 89 1012.1
20260508110855 32 182 0.0 0.0 0.00 0.00 0.00 88 1012.0
20260508110352 32 182 0.0 0.0 0.00 0.00 0.00 89 1012.0
20260508105847 32 182 0.0 0.0 0.00 0.00 0.00 90 1011.8
20260508105343 32 182 0.0 0.0 0.00 0.00 0.00 89 1012.0
20260508104841 32 182 0.0 0.0 0.00 0.00 0.00 89 1012.0
20260508104337 32 182 0.0 0.0 0.00 0.00 0.00 89 1011.8
20260508103835 32 182 0.0 0.0 0.00 0.00 0.00 88 1011.7
20260508103331 32 182 0.0 0.0 0.00 0.00 0.00 88 1012.1
20260508102829 32 182 0.0 0.0 0.00 0.00 0.00 88 1012.1
20260508102327 32 182 0.0 0.0 0.00 0.00 0.00 88 1012.0
20260508101824 32 182 0.0 0.0 0.00 0.00 0.00 89 1012.0
20260508101321 32 182 0.0 0.0 0.00 0.00 0.00 89 1012.1
20260508100819 32 182 0.0 0.0 0.00 0.00 0.00 89 1012.1
20260508100318 32 182 0.0 0.0 0.00 0.00 0.00 88 1012.1
20260508095812 32 182 0.0 0.0 0.00 0.00 0.00 88 1012.1
20260508095311 32 182 0.0 0.0 0.00 0.00 0.00 88 1012.2
20260508094807 32 182 0.0 0.0 0.00 0.00 0.00 88 1012.1
20260508094304 32 182 0.0 0.0 0.00 0.00 0.00 88 1012.1
20260508093801 32 182 0.0 0.0 0.00 0.00 0.00 88 1012.3
20260508093259 32 182 0.0 0.0 0.00 0.00 0.00 88 1012.3
20260508092756 32 182 0.0 0.0 0.00 0.00 0.00 88 1012.2
20260508092254 32 182 0.0 0.0 0.00 0.00 0.00 88 1012.3
20260508091751 32 182 0.0 0.0 0.00 0.00 0.00 88 1012.2
20260508091248 32 182 0.0 0.0 0.00 0.00 0.00 88 1012.4
20260508090746 32 182 0.0 0.0 0.00 0.00 0.00 88 1012.2
20260508090244 32 182 0.0 0.0 0.00 0.00 0.00 88 1012.4
20260508085739 32 182 0.0 0.0 0.00 0.00 0.00 88 1012.4
20260508085237 32 182 0.0 0.0 0.00 0.00 0.00 88 1012.4
20260508084732 32 182 0.0 0.0 0.00 0.00 0.00 87 1012.4
20260508084230 32 182 0.0 0.0 0.00 0.00 0.00 87 1012.5
20260508083727 32 182 0.0 0.0 0.00 0.00 0.00 87 1012.3
20260508083225 32 182 0.0 0.0 0.00 0.00 0.00 87 1012.4
20260508082719 32 182 0.0 0.0 0.00 0.00 0.00 87 1012.5
20260508082218 32 182 0.0 0.0 0.00 0.00 0.00 86 1012.5
20260508081715 33 182 0.0 0.0 0.00 0.00 0.00 86 1012.6
20260508081211 33 182 0.0 0.0 0.00 0.00 0.00 86 1012.5
20260508080708 33 182 0.0 0.0 0.00 0.00 0.00 86 1012.6
20260508080207 33 181 0.0 0.0 0.00 0.00 0.00 87 1012.6
20260508075703 33 181 0.0 0.0 0.00 0.00 0.00 87 1012.4
20260508075200 33 181 0.0 0.0 0.00 0.00 0.00 87 1012.4
20260508074657 33 181 0.0 0.0 0.00 0.00 0.00 87 1012.5
20260508074155 33 181 0.0 0.0 0.00 0.00 0.00 86 1012.5
20260508073651 33 181 0.0 0.0 0.00 0.00 0.00 86 1012.8
20260508073149 33 181 0.0 0.0 0.00 0.00 0.00 86 1012.8
20260508072644 33 181 0.0 0.0 0.00 0.00 0.00 86 1012.9
20260508072142 33 181 0.0 0.0 0.00 0.00 0.00 85 1012.8
20260508071639 33 181 0.0 0.0 0.00 0.00 0.00 85 1012.9
20260508071138 33 181 0.0 0.0 0.00 0.00 0.00 85 1013.0
20260508070635 34 181 0.0 0.0 0.00 0.00 0.00 85 1013.1
20260508070133 34 181 0.0 0.0 0.00 0.00 0.00 85 1013.0
20260508065630 34 181 0.0 0.0 0.00 0.00 0.00 84 1013.0
20260508065128 34 181 0.0 0.0 0.00 0.00 0.00 84 1013.0
20260508064626 34 181 0.0 0.0 0.00 0.00 0.00 84 1013.0
20260508064124 34 181 0.0 0.0 0.00 0.00 0.00 83 1013.1
20260508063621 34 181 0.0 0.0 0.00 0.00 0.00 83 1013.1
20260508063119 34 181 0.0 0.0 0.00 0.00 0.00 83 1013.1
20260508062616 34 181 0.0 0.0 0.00 0.00 0.00 83 1013.0
20260508062112 35 181 0.0 0.0 0.00 0.00 0.00 82 1013.3
20260508061610 35 181 0.0 0.0 0.00 0.00 0.00 83 1013.3
20260508061108 35 181 0.0 0.0 0.00 0.00 0.00 82 1013.2
20260508060603 35 181 0.0 0.0 0.00 0.00 0.00 82 1013.0
20260508055556 35 181 0.0 0.0 0.00 0.00 0.00 82 1013.2
20260508055053 35 181 0.0 0.0 0.00 0.00 0.00 82 1013.4
20260508054549 35 181 0.0 0.0 0.00 0.00 0.00 81 1013.4
20260508054047 36 181 0.0 0.0 0.00 0.00 0.00 81 1013.5
20260508053543 36 181 0.0 0.0 0.00 0.00 0.00 81 1013.3
20260508053042 36 181 0.0 0.0 0.00 0.00 0.00 81 1013.4
20260508052539 36 181 0.0 0.0 0.00 0.00 0.00 80 1013.4
20260508052035 37 181 0.0 0.0 0.00 0.00 0.00 79 1013.3
20260508051532 37 181 0.0 0.0 0.00 0.00 0.00 77 1013.3
20260508051027 38 181 0.0 0.0 0.00 0.00 0.00 76 1013.6
20260508050524 38 181 0.0 0.0 0.00 0.00 0.00 76 1013.4
20260508050021 38 181 0.0 0.0 0.00 0.00 0.00 76 1013.6
20260508045517 38 181 0.0 0.0 0.00 0.00 0.00 76 1013.5
20260508045015 38 181 0.0 0.0 0.00 0.00 0.00 77 1013.6
20260508044512 38 181 0.0 0.0 0.00 0.00 0.00 76 1013.7
20260508044008 38 181 0.0 0.0 0.00 0.00 0.00 76 1013.5
20260508043504 38 181 0.0 0.0 0.00 0.00 0.00 75 1013.5
20260508043000 38 181 0.0 0.0 0.00 0.00 0.00 75 1013.5
20260508042459 38 181 0.0 0.0 0.00 0.00 0.00 75 1013.4
20260508041955 39 181 0.0 0.0 0.00 0.00 0.00 74 1013.2
20260508041452 39 181 0.0 0.0 0.00 0.00 0.00 74 1013.3
20260508040949 39 181 0.0 0.0 0.00 0.00 0.00 73 1013.1
20260508040446 39 181 0.0 0.0 0.00 0.00 0.00 74 1013.2
20260508035944 39 181 0.0 0.0 0.00 0.00 0.00 73 1013.1
20260508035440 39 181 0.0 0.0 0.00 0.00 0.00 72 1013.1
20260508034937 39 181 0.0 0.0 0.00 0.00 0.00 72 1012.9
20260508034435 39 181 0.0 0.0 0.00 0.00 0.00 72 1013.0
20260508033931 39 181 0.0 0.0 0.00 0.00 0.00 71 1013.0
20260508033429 40 181 0.0 0.0 0.00 0.00 0.00 71 1012.9
20260508032926 40 181 0.0 0.0 0.00 0.00 0.00 71 1012.9
20260508032424 40 181 0.0 0.0 0.00 0.00 0.00 70 1012.7
20260508031920 40 181 0.0 0.0 0.00 0.00 0.00 70 1012.9
20260508031418 40 181 0.0 0.0 0.00 0.00 0.00 69 1012.9
20260508030913 41 181 0.0 0.0 0.00 0.00 0.00 69 1012.9
20260508030411 41 181 0.0 0.0 0.00 0.00 0.00 68 1012.8
20260508025908 41 181 0.0 0.0 0.00 0.00 0.00 67 1012.7
20260508025404 41 181 0.0 0.0 0.00 0.00 0.00 67 1012.5
20260508024901 41 181 0.0 0.0 0.00 0.00 0.00 67 1012.6
20260508024358 41 181 0.0 0.0 0.00 0.00 0.00 66 1012.7
20260508023855 41 181 0.0 0.0 0.00 0.00 0.00 65 1012.7
20260508023351 42 181 0.0 0.0 0.00 0.00 0.00 65 1012.6
20260508022848 42 181 0.0 0.0 0.00 0.00 0.00 65 1012.6
20260508022344 42 181 0.0 0.0 0.00 0.00 0.00 66 1012.5
20260508021841 42 181 0.0 0.0 0.00 0.00 0.00 65 1012.5
20260508021337 42 181 0.0 0.0 0.00 0.00 0.00 65 1012.3
20260508020833 42 181 0.0 0.0 0.00 0.00 0.00 64 1012.2
20260508020331 42 181 0.0 0.0 0.00 0.00 0.00 64 1012.1
20260508015828 42 181 0.0 0.0 0.00 0.00 0.00 65 1012.2
20260508015326 43 181 0.0 0.0 0.00 0.00 0.00 66 1012.1
20260508014822 43 181 0.0 0.0 0.00 0.00 0.00 66 1011.8
20260508014320 43 181 0.0 0.0 0.00 0.00 0.00 65 1011.8
20260508013815 43 181 0.0 0.0 0.00 0.00 0.00 64 1011.8
20260508013311 44 181 0.0 0.0 0.00 0.00 0.00 64 1011.7
20260508012808 44 181 0.0 0.0 0.00 0.00 0.00 63 1011.6
20260508012301 44 181 0.0 0.0 0.00 0.00 0.00 64 1011.6
20260508011758 44 181 0.0 0.0 0.00 0.00 0.00 64 1011.6
20260508011256 44 181 0.0 0.0 0.00 0.00 0.00 64 1011.7
20260508010752 44 181 0.0 0.0 0.00 0.00 0.00 64 1011.6
20260508010251 44 181 0.0 0.0 0.00 0.00 0.00 65 1011.7
20260508005747 45 181 0.0 0.0 0.00 0.00 0.00 64 1011.7
20260508005244 45 181 0.0 0.0 0.00 0.00 0.00 63 1011.5
20260508004739 45 181 0.0 0.0 0.00 0.00 0.00 63 1011.5
20260508004236 45 181 0.0 0.0 0.00 0.00 0.00 62 1011.3
20260508003733 46 181 0.0 0.0 0.00 0.00 0.00 61 1011.3
20260508003230 46 181 0.0 0.0 0.00 0.00 0.00 60 1011.3
20260508002727 46 181 0.0 0.0 0.00 0.00 0.00 59 1011.5
20260508002224 46 181 0.0 0.0 0.00 0.00 0.00 58 1011.2
20260508001720 47 181 0.0 0.0 0.00 0.00 0.00 58 1011.1
20260508001215 47 181 0.0 0.0 0.00 0.00 0.00 57 1011.3
20260508000712 47 181 0.0 0.0 0.00 0.00 0.00 58 1011.2
20260508000212 48 181 0.0 0.0 0.00 0.00 0.00 58 1011.3
20260507235705 48 181 0.0 0.0 0.00 0.00 0.00 58 1011.2
20260507235203 49 181 0.0 0.0 0.00 0.00 0.00 56 1011.2
20260507234700 49 181 0.0 0.0 0.00 0.00 0.00 56 1011.0
20260507234156 49 181 0.0 0.0 0.00 0.00 0.00 55 1011.1
20260507233653 49 181 0.0 0.0 0.00 0.00 0.00 56 1011.1
20260507233151 49 181 0.0 0.0 0.00 0.00 0.00 56 1011.0
20260507232648 49 181 1.0 1.0 0.00 0.00 0.00 55 1010.8
20260507232145 50 182 0.0 0.0 0.00 0.00 0.00 54 1011.0
20260507231641 50 181 0.0 0.0 0.00 0.00 0.00 54 1011.0
20260507231139 50 181 1.0 1.0 0.00 0.00 0.00 53 1011.0
20260507230635 50 181 0.0 0.0 0.00 0.00 0.00 51 1011.0
20260507230133 50 182 0.0 0.0 0.00 0.00 0.00 51 1011.2
20260507225632 50 181 0.0 1.0 0.00 0.00 0.00 50 1011.1
20260507225129 51 181 0.0 0.0 0.00 0.00 0.00 51 1011.2
20260507224624 51 181 0.0 0.0 0.00 0.00 0.00 49 1011.1
20260507224121 51 181 0.0 0.0 0.00 0.00 0.00 50 1011.3
20260507223617 51 182 0.0 0.0 0.00 0.00 0.00 49 1011.4
20260507223114 51 182 0.0 0.0 0.00 0.00 0.00 50 1011.3
20260507222611 52 182 0.0 0.0 0.00 0.00 0.00 50 1011.3
20260507222108 52 182 0.0 0.0 0.00 0.00 0.00 51 1011.3
20260507221604 51 181 0.0 0.0 0.00 0.00 0.00 50 1011.4
20260507221101 51 182 0.0 0.0 0.00 0.00 0.00 52 1011.3
20260507220558 51 182 0.0 0.0 0.00 0.00 0.00 52 1011.2
20260507220055 52 182 1.0 1.0 0.00 0.00 0.00 51 1011.3
20260507215551 52 182 0.0 1.0 0.00 0.00 0.00 50 1011.2
20260507215050 52 182 0.0 0.0 0.00 0.00 0.00 51 1011.2
20260507214546 52 182 0.0 0.0 0.00 0.00 0.00 49 1011.2
20260507214042 52 182 0.0 0.0 0.00 0.00 0.00 50 1011.3
20260507213539 53 182 0.0 0.0 0.00 0.00 0.00 50 1011.2
20260507213036 54 182 0.0 0.0 0.00 0.00 0.00 49 1011.3
20260507212532 53 182 1.0 1.0 0.00 0.00 0.00 49 1011.2
20260507212029 53 182 0.0 0.0 0.00 0.00 0.00 51 1011.4
20260507211526 53 181 0.0 0.0 0.00 0.00 0.00 50 1011.3
20260507211022 53 181 1.0 1.0 0.00 0.00 0.00 50 1011.0
20260507210519 53 181 0.0 0.0 0.00 0.00 0.00 51 1011.1
20260507210016 54 181 1.0 2.0 0.00 0.00 0.00 51 1011.1
20260507205512 53 182 0.0 0.0 0.00 0.00 0.00 53 1011.1